RH
30 30 31 32 32 33 34 36 38 41 44 48 54 62 71 79 87 93 97 100 101 102 102 102 102 102 102 101 98 95 92 89 84 78 74 70 67 65 63 61 60 59 60 61 61 61 62 62 62 62 61 60 60 59 58 58 58 59 59 60 62 63 64 63 62 65 69 69 70 76 80 79 74 70 68 66 65 63 62 62 63 64 64 64 65
27 27 27 27 28 28 29 30 31 32 34 36 37 40 44 50 58 67 76 85 93 100 105 107 107 106 105 105 105 104 103 101 97 93 89 85 82 78 75 73 70 68 66 65 65 65 65 65 66 67 68 68 68 66 65 64 64 64 62 62 64 65 65 64 63 65 69 71 71 75 82 85 85 82 79 76 74 71 70 69 69 68 68 68 68
27 27 27 27 27 26 26 26 26 27 29 30 31 32 34 35 37 41 47 54 64 74 85 94 101 104 104 104 103 102 103 104 103 102 101 98 96 93 89 87 85 83 81 79 77 75 74 73 74 74 75 75 75 74 74 74 73 73 71 69 69 69 68 66 64 63 66 68 67 69 76 81 84 84 83 81 79 77 76 76 74 73 73 74 74
24 25 25 26 26 26 26 26 25 24 24 25 26 26 27 28 30 31 33 36 40 45 53 61 70 78 84 88 89 89 90 92 95 98 100 101 101 101 100 98 96 95 95 93 91 89 86 84 83 83 83 81 80 79 79 80 79 78 76 73 72 70 68 66 64 62 62 64 63 65 70 74 75 75 77 78 77 76 76 75 74 74 74 73 73
21 22 23 24 24 24 25 25 25 25 24 23 23 23 23 24 24 25 26 27 29 32 35 39 43 49 54 59 63 67 69 71 74 78 81 84 87 90 94 97 99 100 101 101 99 97 94 92 90 90 89 88 87 86 86 85 82 80 78 76 75 74 71 69 68 65 64 65 65 65 67 68 67 65 67 69 68 67 67 67 67 68 69 71 74
21 21 21 22 23 23 23 24 23 24 24 25 24 23 23 22 22 22 23 23 24 25 27 30 32 36 38 41 43 46 48 51 54 56 58 60 63 66 70 74 79 85 90 95 97 97 97 97 96 96 94 92 91 91 93 92 90 88 88 88 86 84 81 79 77 74 72 71 71 70 70 71 69 65 63 63 62 61 62 63 64 65 67 71 75
26 24 22 21 22 23 23 24 23 23 23 23 24 24 24 23 22 22 21 21 22 23 24 26 27 30 32 35 36 37 38 39 40 41 43 44 46 48 50 53 56 60 64 70 76 80 85 90 94 97 99 98 96 95 95 94 93 92 92 91 89 84 81 78 75 72 70 69 70 71 72 73 72 70 68 66 65 65 65 67 68 69 71 74 77
32 30 28 25 23 23 23 23 24 24 24 23 23 23 23 24 24 23 23 22 22 21 22 23 24 26 28 31 33 34 35 36 35 36 36 37 38 39 40 42 44 45 47 49 52 55 60 65 71 78 84 89 91 90 89 87 86 86 86 85 83 79 76 72 69 65 62 59 58 58 59 60 61 60 59 59 59 59 60 61 63 64 66 68 69
33 33 32 30 28 26 25 25 24 24 24 25 25 24 23 23 23 23 24 24 24 23 23 23 23 24 26 28 29 31 32 34 34 35 36 36 36 36 36 38 39 41 42 43 44 44 45 47 49 52 56 60 64 66 69 70 72 75 77 77 76 75 72 69 64 59 54 49 46 44 42 42 42 42 41 41 40 40 39 39 40 42 43 43 43
31 31 33 32 31 29 28 27 27 27 26 26 25 25 25 24 24 24 23 23 24 24 24 25 25 25 26 27 28 29 31 32 33 34 35 36 37 37 37 39 40 41 42 43 44 45 45 45 45 45 45 46 48 49 51 52 54 56 58 59 59 59 58 56 53 50 46 43 41 38 37 36 36 36 36 35 34 32 31 30 30 30 29 29 30
26 27 29 31 32 31 30 28 27 28 28 28 28 28 27 26 25 24 24 24 24 24 24 24 25 26 27 27 28 30 31 31 32 33 34 35 36 37 38 39 41 42 43 44 45 46 47 47 47 47 47 47 47 47 47 47 47 47 48 48 48 48 48 47 47 46 45 44 42 41 40 40 40 39 39 38 36 35 33 30 29 29 28 28 29
18 20 22 24 26 27 28 28 27 27 27 27 29 29 29 29 28 27 26 25 24 24 24 24 24 24 25 26 26 28 29 30 32 32 33 34 34 35 36 37 38 39 40 42 43 45 46 47 48 48 49 49 48 47 47 46 45 45 45 44 44 43 43 43 44 44 44 43 43 42 42 42 42 41 41 40 39 36 34 32 31 30 29 28 28
13 14 16 17 19 21 22 23 24 24 24 24 24 25 26 28 29 29 29 28 27 26 25 25 25 24 25 25 25 25 26 27 28 30 31 33 34 35 35 35 36 37 38 39 40 41 42 43 44 46 47 48 48 47 46 45 44 43 43 42 42 42 42 43 43 43 43 43 42 42 42 42 42 41 40 39 38 35 34 33 32 31 30 29 28
12 12 13 13 14 16 18 19 20 20 21 22 22 22 22 22 23 25 26 28 29 29 29 28 27 27 26 26 26 26 26 26 27 28 29 31 33 33 34 35 36 37 38 40 40 41 41 41 41 42 42 42 42 43 43 42 42 41 41 41 41 42 43 44 44 44 44 43 42 42 42 41 40 39 38 37 36 35 34 33 32 31 30 28 27
11 12 12 12 13 14 15 16 17 18 19 20 21 22 22 21 21 21 21 23 25 26 28 29 29 30 29 29 29 29 28 28 28 28 30 31 32 33 33 34 35 36 37 38 39 40 40 40 39 39 38 38 38 38 38 38 38 38 38 39 40 41 42 43 43 43 41 40 40 39 39 39 38 38 37 36 35 34 34 32 31 29 28 25 22
9 10 11 12 13 13 14 14 15 16 17 18 19 21 22 23 23 23 22 22 22 22 23 24 26 28 29 30 31 31 32 32 32 32 33 34 34 33 34 34 34 35 36 36 37 37 37 37 37 36 36 35 35 35 35 35 35 35 36 37 37 38 39 40 40 39 38 37 37 37 37 37 38 38 37 36 36 34 32 30 28 26 23 20 17
6 7 9 10 11 12 13 14 15 15 16 17 18 19 20 21 22 24 24 25 24 23 22 22 22 23 24 26 28 30 32 33 35 36 38 40 40 38 38 38 37 37 37 36 36 36 35 35 35 35 35 34 35 35 35 35 35 35 36 37 37 38 39 40 40 40 39 39 40 40 41 41 40 40 39 38 37 34 29 26 23 19 17 15 13
5 6 6 7 8 10 11 13 14 15 15 16 17 18 18 20 21 23 24 26 26 26 26 25 24 23 23 23 24 25 27 28 31 34 37 41 43 43 43 43 42 41 41 40 40 39 38 37 36 35 35 35 35 35 35 36 37 38 38 39 40 41 42 43 44 44 43 43 44 44 45 45 44 43 40 36 32 26 21 18 16 14 13 13 12
5 5 5 6 6 7 9 10 12 13 15 15 16 17 18 19 20 21 23 24 25 26 27 28 28 27 26 25 24 24 24 24 25 27 30 34 37 38 38 39 40 41 42 42 42 42 41 40 39 38 37 37 37 38 37 38 38 39 40 41 43 44 45 46 45 45 44 44 44 44 44 42 39 35 30 24 20 16 15 14 13 12 12 12 12
5 5 5 5 6 6 7 8 9 11 12 14 15 16 17 18 18 19 20 21 22 23 24 25 26 27 27 27 26 25 24 23 23 23 24 26 28 29 30 30 32 33 35 36 37 38 38 39 39 39 39 39 39 39 39 38 39 40 41 42 43 44 44 44 44 43 43 42 40 37 33 29 24 21 18 16 14 14 13 13 12 12 12 12 12
6 6 5 5 6 6 6 7 8 9 10 11 12 14 15 16 17 18 18 19 19 20 21 22 23 24 25 26 26 25 24 23 22 22 23 23 25 26 26 25 26 28 29 30 30 31 32 34 35 36 36 36 36 36 36 36 36 37 39 40 41 42 42 42 41 38 35 31 27 23 20 17 15 15 14 14 13 13 12 12 12 12 11 11 11
6 6 6 6 6 6 6 7 7 8 9 9 10 12 13 14 15 16 17 18 19 19 20 21 22 23 24 24 24 23 23 22 21 21 21 22 23 24 25 24 25 26 27 27 28 28 28 28 29 30 30 31 32 32 33 34 34 35 36 36 36 35 33 30 26 23 20 18 16 15 15 14 14 14 13 13 12 12 12 11 11 11 11 10 10
7 7 7 7 7 7 7 7 8 8 9 9 10 11 12 13 14 15 16 17 18 19 20 21 22 23 24 24 24 24 23 22 21 20 20 20 20 21 23 23 23 24 24 25 25 26 26 26 27 28 29 30 31 31 32 32 30 29 27 25 23 20 17 15 14 14 14 13 13 13 13 12 12 12 12 12 11 11 11 10 10 10 10 10 10
6 7 7 7 8 8 8 8 8 8 9 10 10 11 12 13 14 15 16 17 18 20 21 22 24 25 25 25 25 24 23 22 21 20 20 20 20 21 21 22 22 22 23 24 25 26 27 29 30 31 32 31 30 28 26 23 20 17 15 13 13 13 13 13 13 13 12 12 12 12 12 12 12 11 11 11 10 10 10 9 9 9 9 9 10
5 6 7 7 8 8 8 8 9 9 10 10 11 12 12 13 14 15 16 17 18 19 21 22 23 24 24 24 23 23 22 21 21 21 21 22 23 23 23 24 25 25 26 26 27 27 28 28 28 27 25 23 20 18 15 13 12 12 12 13 14 14 14 14 13 13 12 12 12 12 12 11 11 11 10 10 10 10 9 9 9 9 9 9 9
5 6 7 8 8 8 8 9 9 9 10 10 11 12 13 14 14 15 16 16 17 18 19 20 21 21 21 21 21 21 21 21 22 23 24 25 26 27 29 30 30 30 30 29 27 25 23 20 18 16 14 12 11 11 11 11 12 13 14 15 14 14 13 13 13 13 12 12 12 12 11 11 11 11 10 10 10 10 10 10 10 10 10 9 9
5 6 7 7 8 8 9 9 10 10 10 11 11 12 13 14 14 15 16 16 17 18 19 19 20 20 21 21 22 23 24 25 26 27 28 29 30 31 32 32 32 31 30 27 23 19 15 12 11 10 9 9 9 10 11 13 14 14 14 14 13 13 13 13 12 12 12 12 12 11 11 11 11 11 11 11 10 10 10 9 9 9 9 9 9
5 6 6 7 8 9 9 10 10 11 11 12 12 13 13 14 15 16 16 17 18 19 20 21 22 23 23 24 26 27 28 29 30 30 31 31 31 30 29 28 27 25 22 18 15 13 11 10 9 9 9 10 11 12 14 14 14 14 14 13 13 13 13 13 12 12 12 12 11 11 11 11 11 11 11 11 11 11 10 10 10 9 9 9 9
5 5 6 7 7 8 9 10 11 12 12 13 13 14 15 15 16 17 17 18 19 20 21 23 24 25 26 27 28 29 29 29 29 29 28 28 26 24 22 20 18 15 13 11 10 10 9 10 10 10 11 12 14 15 15 15 14 14 14 13 13 13 13 13 12 12 12 12 11 11 11 11 11 11 11 11 11 11 11 11 10 10 10 9 9
5 5 6 6 7 8 9 10 10 11 13 13 14 15 16 16 17 18 18 19 20 21 22 23 24 25 25 26 26 26 26 25 25 24 22 21 19 16 14 12 10 9 9 8 9 9 9 9 10 12 13 15 15 16 15 14 14 13 13 13 13 12 12 12 12 12 12 12 11 11 11 11 11 11 11 11 11 11 11 11 11 10 10 10 10
5 5 6 6 6 7 8 9 10 11 12 14 15 15 16 17 17 18 19 20 21 22 23 23 24 23 23 22 22 21 20 20 19 17 16 14 12 10 9 8 8 8 8 8 8 9 9 10 12 13 15 15 15 15 14 14 13 13 12 12 12 12 12 12 12 12 11 11 11 11 11 11 11 11 11 11 11 11 11 11 11 11 10 10 10
5 5 6 6 6 6 7 8 9 10 11 12 14 15 15 16 17 18 18 19 20 21 21 21 21 20 18 17 16 15 14 13 12 11 10 9 9 8 8 8 8 8 8 8 9 9 10 12 13 14 14 15 14 14 13 13 12 12 12 12 12 12 12 12 12 12 11 11 11 11 11 11 11 12 12 12 12 12 12 11 11 11 11 11 11
5 5 5 6 6 6 6 7 7 8 9 10 11 12 13 13 14 15 16 16 17 17 16 16 16 15 14 12 11 9 9 8 7 7 7 7 7 7 8 8 8 9 9 9 10 10 12 13 14 14 14 14 14 13 13 13 13 13 13 13 14 14 13 13 13 12 12 12 12 12 12 12 12 12 12 12 12 12 12 12 11 11 11 11 10
5 5 5 6 6 6 6 6 6 7 7 8 8 9 10 11 11 11 12 12 13 12 12 11 10 10 9 8 7 7 7 6 6 6 7 7 7 7 8 8 9 9 10 10 11 12 13 14 14 14 14 14 13 13 13 13 13 13 14 14 14 14 14 13 13 13 12 12 12 12 12 12 12 12 12 12 12 11 11 11 10 10 10 10 10
5 5 5 5 5 6 6 6 6 6 6 7 7 8 8 9 9 9 9 9 9 9 9 8 8 8 7 7 7 7 7 6 7 7 7 7 8 8 9 9 9 10 11 12 14 15 15 15 15 14 14 14 14 14 14 14 14 14 14 14 13 13 13 13 12 12 12 12 13 13 13 13 13 12 12 12 11 11 12 11 11 11 10 10 9
5 5 5 5 5 5 5 6 6 6 6 6 7 7 7 7 7 8 8 7 7 7 7 7 7 7 7 7 7 7 7 7 8 8 8 8 8 9 9 10 11 12 13 14 15 15 15 15 15 15 14 14 14 14 14 14 14 14 14 13 13 13 12 12 12 13 13 13 13 13 13 13 13 13 13 14 14 13 13 13 12 11 11 10 10
5 5 5 5 5 5 5 5 5 6 6 6 6 6 7 7 7 7 7 7 7 7 7 7 8 8 8 8 8 8 8 9 9 9 9 10 10 10 11 11 12 14 15 15 15 15 15 15 15 15 15 15 15 15 15 14 14 14 13 13 13 13 13 14 14 13 13 13 13 13 13 14 15 15 15 15 14 14 13 13 13 12 12 11 11
5 6 6 6 6 6 6 6 6 6 6 6 7 7 7 7 7 7 7 7 8 8 8 8 9 9 9 9 9 9 9 10 10 10 11 11 12 12 13 13 13 14 15 15 15 15 15 14 14 14 14 14 13 13 13 13 13 13 13 14 14 15 15 14 13 13 14 15 15 16 17 17 16 16 15 15 14 14 13 13 12 12 11 11 10
6 6 6 6 6 6 6 7 7 7 7 7 7 7 7 7 7 7 8 8 8 8 9 9 9 10 10 10 11 11 11 11 12 12 12 12 12 13 13 13 13 13 13 13 13 13 12 12 12 12 12 12 12 12 12 13 13 14 15 15 15 14 14 14 15 17 18 19 19 19 18 18 17 16 15 15 14 13 12 11 11 10 10 9 9
6 6 6 7 7 7 7 7 7 7 7 7 7 7 8 8 8 8 8 8 9 9 10 10 10 11 11 11 12 12 13 13 13 14 13 13 13 13 13 13 13 13 13 12 12 12 11 11 11 11 12 12 13 13 14 14 15 15 15 14 15 16 17 19 20 21 21 20 20 19 18 18 17 15 14 13 12 11 11 10 10 10 9 9 9
6 7 7 7 7 7 7 7 7 8 8 8 8 8 8 8 9 9 9 9 9 10 10 11 11 11 12 12 12 13 13 13 14 14 14 14 13 13 13 12 12 12 12 11 12 12 12 12 13 13 14 14 15 15 15 15 14 14 15 17 19 21 23 23 23 23 22 21 20 19 17 16 14 13 12 11 11 10 10 10 9 9 9 9 9
7 7 7 7 7 7 8 8 8 8 8 8 8 9 9 9 9 9 9 10 10 10 10 11 11 11 11 11 12 12 12 12 13 13 13 13 12 12 13 12 12 12 12 12 12 13 14 15 15 15 16 16 16 16 16 16 17 19 22 24 25 25 25 24 24 22 21 20 18 17 15 14 13 12 11 11 11 10 10 9 9 9 9 8 9
7 7 7 7 7 8 8 8 8 8 8 8 8 9 9 9 9 9 9 9 9 10 10 10 10 10 10 10 11 11 11 11 12 12 12 12 12 12 13 13 14 14 13 13 14 14 15 16 16 16 16 16 17 17 19 21 24 27 28 28 28 27 26 24 23 21 20 19 17 16 14 13 12 12 11 11 11 10 10 10 9 9 9 9 8
7 7 7 7 8 8 8 8 8 8 8 8 9 9 9 9 9 9 9 9 9 9 9 9 10 10 10 10 10 11 11 11 12 12 12 12 13 13 14 15 15 15 15 15 15 14 15 16 16 17 18 19 21 23 26 27 29 29 29 29 28 26 25 23 22 21 19 18 17 16 15 14 13 12 11 11 10 10 10 10 9 9 9 9 9
7 8 8 8 8 8 8 8 8 9 9 9 9 9 9 9 9 9 9 9 10 10 10 10 11 11 11 11 12 11 12 12 12 12 13 13 13 14 14 14 15 15 15 15 15 15 16 17 18 19 22 24 26 28 29 30 30 30 29 28 26 25 24 23 21 20 19 18 17 16 15 14 13 12 11 10 10 10 10 10 9 9 9 9 9
7 7 8 8 8 8 8 8 8 9 9 9 9 9 9 9 9 9 10 10 10 10 10 10 11 11 11 11 12 11 11 12 12 12 12 12 13 13 13 14 15 15 16 17 18 19 20 21 23 25 26 28 29 30 31 32 32 30 28 26 25 24 23 22 21 20 19 18 17 16 15 13 12 12 11 10 10 10 10 10 10 10 9 9 9
7 7 8 8 8 8 8 8 8 8 8 8 9 9 9 9 9 9 9 9 9 10 10 10 10 10 10 11 11 11 11 12 12 12 12 13 13 14 15 15 16 17 19 20 22 23 25 26 27 29 30 30 32 33 33 32 30 28 26 25 25 24 23 22 21 20 20 18 16 15 14 13 12 11 10 10 10 10 10 10 9 9 9 9 9
7 8 8 8 8 8 8 8 8 8 8 9 9 9 9 9 9 9 10 10 10 10 10 11 11 11 11 12 12 12 13 13 13 14 15 16 17 18 18 19 19 20 21 22 24 25 26 28 29 31 33 33 33 32 31 29 28 27 26 25 24 23 23 22 21 20 19 17 15 14 13 12 12 11 10 10 10 10 10 10 10 10 9 9 9
8 8 9 9 9 9 9 9 9 9 9 10 10 10 10 10 10 11 11 11 11 12 12 13 13 13 13 14 14 14 14 15 15 16 17 18 19 19 19 19 20 21 22 23 25 26 28 30 31 32 32 32 31 29 28 28 28 27 26 25 25 24 23 22 21 19 17 15 14 13 13 12 11 10 10 10 10 10 10 10 10 10 9 9 9
8 8 9 9 9 9 9 10 10 10 10 10 10 11 11 11 11 12 12 13 13 13 13 13 14 14 14 15 15 15 15 16 16 17 18 19 19 20 20 21 22 23 24 26 27 29 30 30 31 31 30 29 29 29 29 29 28 28 27 26 25 24 23 22 20 18 17 15 14 14 13 12 11 10 10 11 11 11 11 10 10 10 9 9 8
8 8 8 8 8 9 9 9 9 10 10 10 10 10 11 11 11 12 12 12 13 13 13 14 14 14 15 15 15 16 16 17 18 18 19 20 21 22 23 24 25 27 28 28 29 29 30 30 30 30 30 30 30 30 30 29 29 28 28 27 26 24 23 22 20 18 16 15 15 14 13 11 11 11 11 11 11 11 11 10 10 9 9 9 9
Wind_Speed
102 102 103 103 104 104 105 106 108 108 109 109 110 111 112 113 114 115 116 117 118 118 119 119 119 119 119 119 120 120 120 121 121 121 121 121 120 121 121 121 121 121 121 120 120 120 120 120 120 120 120 120 120 120 120 120 120 120 120 121 121 122 122 123 122 121 123 123 122 121 123 125 125 124 124 123 123 123 122 121 120 120 120 119 119
101 102 102 102 102 103 103 104 106 107 108 109 109 110 111 112 114 115 116 117 118 119 120 120 121 121 121 121 122 123 123 123 124 123 123 123 123 123 123 123 123 123 122 122 122 122 122 122 122 122 122 122 122 122 122 122 122 122 122 122 122 123 123 123 123 122 122 122 121 119 120 121 122 122 122 122 121 121 120 119 119 119 119 119 119
98 100 101 101 102 102 102 102 104 105 106 107 108 109 110 111 112 113 115 116 117 119 119 121 122 122 123 123 124 125 125 126 126 126 126 126 126 126 126 126 125 125 125 125 125 125 125 125 125 125 125 125 125 124 124 124 124 124 124 124 124 124 125 125 125 124 123 123 122 120 119 121 121 121 121 121 121 120 119 119 119 119 119 119 119
95 97 98 99 100 101 101 101 102 103 104 105 106 107 108 109 110 112 113 114 116 117 118 119 121 122 123 124 125 125 126 126 127 127 127 128 128 128 128 128 128 128 128 128 128 128 128 127 127 127 127 127 127 127 126 126 127 127 126 126 126 126 126 126 126 126 125 125 124 122 121 122 123 122 122 122 122 121 121 121 121 121 121 121 122
93 94 95 97 98 99 99 100 101 102 103 104 104 105 106 107 108 109 110 111 113 114 116 117 118 120 121 123 124 125 125 126 126 127 127 128 128 129 129 130 130 130 130 130 130 130 130 130 129 129 129 129 129 129 129 129 129 129 128 128 128 128 128 127 127 127 127 126 126 125 124 125 125 125 124 125 125 125 124 124 124 124 124 125 125
92 93 94 95 96 97 98 98 99 100 101 103 104 104 105 105 106 107 107 108 110 111 113 114 116 117 118 119 121 122 123 124 125 126 127 127 127 127 128 129 130 130 131 131 132 132 132 132 132 132 132 131 131 131 131 131 131 131 130 130 130 130 130 130 130 130 129 129 129 128 126 127 127 127 126 127 128 128 128 128 128 129 129 130 131
94 94 94 94 94 95 96 97 98 98 99 101 102 103 104 105 106 106 107 107 108 108 110 111 112 114 115 116 117 118 119 121 122 123 124 125 125 126 126 127 127 128 129 130 131 132 132 132 133 133 133 133 133 133 133 133 133 133 132 133 133 133 133 132 132 132 132 131 131 130 130 129 129 129 129 129 130 130 131 132 133 134 135 135 136
95 95 95 95 95 95 95 96 96 97 97 98 100 101 102 103 104 106 106 107 107 107 108 109 110 111 113 114 115 116 116 117 118 119 120 121 122 123 124 124 125 126 126 127 129 129 130 131 132 133 133 134 135 135 135 135 135 134 134 134 135 135 135 134 134 134 133 132 132 131 131 131 131 130 130 130 131 132 132 134 135 136 137 138 138
95 96 96 96 96 96 96 96 96 97 97 97 98 99 100 101 102 103 104 105 106 107 107 108 109 110 111 112 113 114 114 115 115 116 117 118 119 120 120 121 122 123 124 125 126 127 127 128 129 130 131 133 134 135 135 136 136 136 136 137 137 136 136 136 135 135 134 133 132 131 131 130 130 130 130 130 130 131 131 132 133 134 135 135 136
96 97 97 98 98 98 98 98 98 98 98 98 97 98 98 99 99 100 101 103 104 105 106 107 107 108 109 110 111 112 112 113 113 113 114 115 116 116 117 117 118 120 121 122 123 124 125 126 127 128 129 130 132 133 134 135 135 135 135 136 136 136 136 136 135 135 134 133 132 132 131 130 130 130 130 130 130 130 130 130 131 132 132 132 132
97 98 98 98 99 100 100 100 100 100 100 99 99 99 98 98 98 99 100 100 101 102 103 104 105 106 107 108 109 110 110 111 111 112 112 112 113 113 114 114 116 117 118 119 120 121 123 123 124 125 126 127 128 130 131 132 132 133 133 133 134 134 134 134 134 134 134 133 133 132 131 131 131 131 131 131 132 132 132 132 132 132 132 132 133
96 97 98 98 99 100 101 101 101 101 101 101 101 101 100 100 100 99 99 99 100 100 101 102 103 104 105 106 106 107 108 109 109 110 110 110 111 111 112 112 113 114 115 116 117 119 120 121 122 123 124 125 126 127 128 129 129 130 130 131 131 131 131 132 132 132 132 131 131 131 131 131 132 132 133 134 134 135 135 135 134 135 135 134 134
94 95 96 96 98 99 100 101 101 102 102 102 102 102 101 101 101 101 100 100 100 100 100 101 101 102 103 104 104 105 105 106 107 107 107 108 109 110 110 111 111 112 113 114 115 116 118 119 120 121 122 122 123 124 125 126 127 128 128 129 129 129 129 130 130 130 130 130 130 130 131 132 133 134 135 136 137 137 137 136 136 136 136 135 135
92 93 93 94 94 96 98 99 100 101 101 102 102 102 102 101 101 101 101 101 101 101 101 101 101 101 102 102 103 103 104 104 104 104 105 106 107 108 108 109 109 110 111 112 113 114 115 116 117 118 119 120 121 122 123 124 125 126 126 127 127 127 128 128 129 129 130 130 131 131 132 134 135 135 136 137 137 137 137 137 137 136 136 135 134
90 91 91 92 92 92 94 96 97 99 100 100 101 102 102 102 102 101 101 100 100 101 101 101 101 101 101 102 102 102 103 103 103 103 103 104 106 106 107 107 108 108 109 110 111 112 113 114 115 116 117 117 118 119 120 122 123 124 124 125 125 126 127 128 129 130 130 130 131 132 133 134 135 135 136 136 136 136 136 136 136 135 135 134 133
87 88 89 90 90 90 91 92 94 95 97 98 99 99 100 100 101 101 101 100 100 100 100 100 101 101 101 101 101 102 102 102 102 102 102 104 105 105 106 106 107 107 108 109 109 110 111 112 113 114 115 116 117 118 119 120 121 122 122 123 124 125 126 127 129 130 130 130 131 132 133 133 134 135 135 135 136 136 136 135 135 134 134 133 131
84 85 87 88 88 89 89 90 91 92 93 94 95 96 97 98 98 99 99 100 100 100 100 99 99 99 100 100 100 101 101 101 102 101 102 104 105 105 106 106 107 107 107 108 108 109 110 111 112 113 114 115 116 117 118 119 120 121 122 122 124 125 126 128 129 130 130 131 131 132 133 134 135 135 135 135 136 136 135 134 133 133 132 130 127
81 82 83 85 85 86 86 87 88 89 90 91 92 93 94 94 95 96 96 97 98 99 99 99 99 99 99 99 99 99 100 100 101 101 101 103 105 106 106 106 107 107 107 108 108 109 109 110 111 112 112 113 115 116 117 118 119 120 121 123 124 125 126 128 129 130 131 132 132 133 134 135 135 135 135 135 135 134 133 131 130 128 127 125 123
78 79 80 82 82 83 83 84 85 87 88 88 89 90 91 91 92 93 94 94 95 96 96 97 97 97 98 98 98 98 98 98 99 99 99 100 102 104 104 105 105 106 107 107 108 109 110 110 111 111 112 113 114 115 116 117 118 119 121 122 123 125 126 128 129 130 130 131 131 132 133 133 133 133 133 132 130 129 127 126 124 123 122 121 120
74 75 76 78 79 80 80 81 82 84 85 86 87 87 88 89 89 90 91 92 93 93 93 93 94 94 95 95 96 96 96 96 97 97 97 98 99 101 102 102 102 103 104 105 107 108 108 109 110 111 112 113 114 115 116 116 117 118 119 121 122 123 125 126 127 128 128 128 129 129 129 129 129 128 127 126 124 123 121 120 119 119 118 118 117
71 71 72 74 75 77 78 78 79 81 82 83 84 84 85 87 87 88 89 90 90 91 91 91 91 91 91 92 93 93 94 94 94 95 95 96 97 99 100 100 100 101 102 103 104 105 106 107 108 109 110 111 112 113 114 115 115 116 117 119 120 121 122 123 124 125 125 125 125 125 124 124 123 121 120 119 119 118 117 116 116 115 115 115 115
67 68 68 69 71 73 74 75 76 78 79 80 81 81 82 84 85 86 87 87 88 89 89 90 90 90 90 90 91 91 91 91 92 92 93 94 94 96 98 98 99 99 101 102 102 103 104 104 105 106 108 109 110 111 112 113 114 114 115 116 117 118 119 120 120 120 120 120 119 118 118 117 116 116 115 115 115 115 114 113 112 112 112 113 113
64 64 64 65 66 68 70 71 73 74 76 77 78 79 79 80 82 83 84 85 85 86 87 87 87 88 88 88 88 89 89 89 89 89 90 91 91 92 94 95 97 98 99 100 101 102 102 103 104 104 105 107 108 108 110 111 111 112 112 113 113 114 114 114 113 113 112 112 111 111 111 111 111 111 111 111 111 111 111 110 109 109 109 109 109
61 61 61 61 62 64 65 67 68 70 72 73 74 75 76 77 78 79 80 81 82 82 83 83 84 84 85 85 86 86 86 87 87 87 87 87 88 89 90 92 94 95 96 97 98 99 100 101 102 103 104 105 106 106 107 108 108 108 108 108 108 108 107 107 107 106 106 105 105 105 106 106 106 106 106 107 107 107 107 107 106 105 105 105 105
58 58 58 59 60 61 61 62 64 65 67 68 70 71 72 73 74 75 76 76 77 78 78 79 80 81 81 82 82 83 83 83 83 84 84 84 85 86 88 89 91 92 93 94 95 96 97 98 99 100 101 101 102 103 103 103 104 103 103 103 103 102 102 102 102 102 102 102 102 101 102 102 102 103 103 103 103 103 103 103 103 102 102 101 101
55 55 56 57 57 58 59 60 61 62 63 64 66 67 68 69 70 71 72 72 72 73 74 75 76 76 77 78 78 79 79 80 80 81 82 83 84 85 86 87 89 90 91 92 93 93 93 94 94 95 95 96 96 97 97 98 98 98 98 98 98 98 98 98 98 98 98 98 98 98 98 98 98 99 99 99 99 99 99 99 99 99 99 99 99
53 53 54 54 55 55 56 57 58 60 60 61 62 64 65 66 67 68 68 68 69 69 70 71 72 73 74 74 75 76 77 78 79 80 81 82 83 84 85 86 87 88 89 90 90 90 90 90 90 90 90 91 91 91 91 91 92 92 92 93 93 93 93 93 93 93 93 93 93 93 93 94 94 94 95 95 96 96 97 97 97 97 97 97 96
52 52 52 53 53 53 53 54 55 57 58 59 60 61 62 63 64 65 66 66 66 67 68 69 69 71 71 72 73 74 75 77 78 79 80 81 82 83 83 84 84 85 86 86 86 86 86 86 86 86 86 86 86 86 86 86 86 87 87 87 87 88 88 88 88 88 89 89 89 89 89 90 90 91 92 92 93 94 95 95 96 96 96 96 95
51 51 51 51 52 51 51 52 52 53 55 56 57 59 60 61 62 63 64 64 65 66 66 67 68 70 71 71 72 73 74 76 77 78 79 79 80 81 81 81 82 82 82 82 81 81 82 82 82 82 82 82 82 82 82 82 82 82 82 83 83 83 84 84 84 84 85 85 85 86 86 87 88 88 89 90 90 91 92 93 93 94 94 94 94
48 49 50 50 50 50 51 51 51 51 52 54 55 57 58 59 60 61 62 62 63 64 65 66 68 69 69 70 71 72 73 74 75 75 76 76 77 78 78 78 78 78 77 77 77 77 78 78 77 77 78 78 78 78 78 78 78 78 78 79 79 79 79 80 80 80 81 81 82 82 83 84 85 85 86 87 87 88 88 89 90 90 91 91 92
45 46 48 48 49 49 50 50 50 50 51 52 53 55 56 57 58 59 59 60 61 62 63 64 66 67 68 69 69 70 71 71 71 72 73 73 74 75 75 74 74 74 73 73 73 73 73 73 73 74 74 74 74 74 74 74 74 75 75 75 75 75 76 76 77 77 78 78 79 80 80 81 82 83 83 84 85 85 86 87 87 88 89 89 90
43 44 45 46 47 48 49 49 50 50 50 51 52 54 55 55 56 57 58 58 59 60 62 63 65 66 67 68 68 68 68 69 69 69 69 70 71 71 71 70 70 70 69 68 68 68 69 69 70 70 70 70 71 71 71 71 71 71 71 72 72 73 73 74 74 75 76 76 77 78 79 80 80 81 82 83 84 84 85 86 87 88 88 89 89
41 42 43 43 44 46 47 47 48 49 49 50 51 52 54 55 55 55 56 57 58 59 61 62 64 65 66 67 67 67 67 66 66 66 66 66 67 67 66 66 66 66 66 65 65 65 65 66 66 67 67 67 68 68 68 68 68 69 69 69 70 71 72 73 73 74 75 76 76 77 78 79 80 80 81 82 83 84 85 85 86 86 87 87 87
39 40 41 41 42 43 44 45 46 47 48 49 49 50 52 53 53 54 55 56 58 59 60 61 62 63 64 65 65 64 64 64 63 62 62 62 63 62 62 63 64 64 63 63 63 63 62 62 63 64 64 65 66 66 66 66 67 67 67 68 69 70 71 72 72 73 74 75 76 77 77 78 79 80 80 81 81 82 82 83 83 84 84 84 84
37 38 39 39 41 42 42 43 44 45 46 47 47 48 49 51 52 53 54 55 56 57 58 59 60 61 62 62 62 61 61 60 60 59 59 59 59 59 59 60 61 61 61 61 61 61 61 61 61 62 63 63 64 64 65 65 65 66 66 67 68 68 69 70 71 72 72 73 74 75 76 77 78 78 78 79 79 79 80 80 81 81 82 82 82
35 36 36 37 38 40 40 41 42 43 44 44 45 46 47 48 50 51 52 52 53 54 55 56 57 57 57 58 58 58 58 57 57 57 57 57 57 57 56 56 57 58 58 59 59 59 59 59 60 61 62 62 63 63 64 64 65 65 66 66 67 67 68 69 70 70 71 72 72 73 74 74 75 75 76 76 77 77 78 79 79 80 80 80 80
33 34 35 35 36 38 38 39 40 40 41 42 43 44 45 46 47 47 48 49 50 51 52 53 53 54 54 53 53 54 54 54 54 55 55 55 55 55 55 54 55 55 56 57 57 58 58 58 59 59 60 61 62 62 63 64 64 64 65 65 66 66 67 67 68 69 69 69 70 70 71 72 72 73 74 74 75 76 76 77 77 77 78 78 78
32 33 33 34 35 36 37 37 38 38 39 40 41 42 43 43 44 44 45 46 46 47 48 49 50 51 51 51 51 51 51 51 51 52 52 53 53 53 53 53 53 54 55 55 56 56 57 57 57 57 58 59 60 60 61 61 62 62 63 63 63 64 65 65 66 66 67 67 68 68 69 70 71 72 73 73 73 74 74 75 75 75 75 75 75
32 32 32 33 33 34 35 36 36 37 38 39 39 40 40 41 41 42 42 43 43 44 44 45 47 48 48 48 49 49 49 49 49 49 50 51 51 51 51 52 52 52 53 54 54 55 55 55 55 56 56 56 57 58 58 59 59 60 60 61 61 62 63 63 64 64 65 66 66 67 68 69 69 70 71 71 72 72 72 72 73 73 73 73 73
31 31 32 32 32 33 34 35 35 36 37 37 38 38 39 39 39 40 40 41 41 42 42 43 44 45 45 46 47 47 47 47 47 48 48 49 50 50 50 51 51 51 52 52 53 53 54 54 54 54 54 54 54 55 55 56 57 57 58 59 60 60 61 61 62 63 63 64 65 66 66 67 68 68 69 69 70 70 70 70 70 70 70 70 70
30 31 31 31 32 32 33 34 34 35 36 36 36 37 38 38 39 39 39 40 40 40 41 42 42 43 44 44 45 45 45 46 46 47 47 48 48 49 49 50 51 51 52 52 52 52 52 52 52 53 53 53 53 54 54 55 55 56 57 57 58 59 60 60 61 61 62 62 63 64 65 65 66 67 67 67 67 68 67 67 67 67 67 67 68
30 31 31 31 31 32 32 33 34 34 35 35 36 36 37 37 38 38 39 39 39 40 40 41 41 42 42 43 44 44 45 45 46 46 47 47 47 47 48 49 50 51 51 51 50 50 51 51 51 51 52 52 52 53 53 54 54 55 56 56 57 58 58 59 59 60 60 60 61 62 63 64 65 65 65 65 65 66 66 65 65 65 65 65 65
30 31 31 31 31 32 32 33 33 34 34 35 36 36 37 37 37 38 38 38 39 39 39 40 41 41 42 43 43 44 45 45 46 46 47 47 47 46 46 47 48 49 50 50 49 49 50 50 50 51 51 51 51 51 52 52 53 54 55 55 56 56 56 57 57 58 58 59 60 61 62 63 63 63 63 64 64 64 64 64 64 64 64 64 63
30 31 31 31 32 32 32 33 33 34 34 35 35 36 36 37 37 37 37 38 38 38 38 39 39 40 41 42 43 43 44 45 45 45 46 46 46 45 45 46 46 47 48 48 48 48 49 49 50 50 50 50 50 50 51 51 52 53 54 54 54 54 54 54 55 56 57 58 59 60 61 61 61 61 62 62 63 62 62 62 62 62 62 62 62
30 30 31 31 31 32 32 32 33 33 34 34 34 35 35 36 36 36 36 37 37 37 37 38 38 39 39 40 41 42 42 43 44 44 45 45 45 45 45 45 45 46 46 47 47 48 48 48 49 49 49 49 50 50 50 50 51 52 52 52 52 52 53 53 54 55 56 57 58 59 59 59 59 60 60 61 61 61 61 60 60 60 60 59 59
29 30 30 30 31 31 32 32 32 33 33 33 34 34 35 35 35 35 36 36 36 36 37 37 38 38 38 39 40 41 41 42 43 43 43 43 44 44 44 44 45 45 45 46 46 46 47 47 47 48 48 49 49 49 49 50 50 50 51 51 51 51 52 52 53 54 55 56 57 57 58 58 58 58 58 59 58 58 58 58 58 58 58 57 57
30 30 30 31 31 32 32 32 33 33 33 33 34 34 35 35 35 35 35 35 36 36 37 37 38 38 38 39 39 40 40 41 41 41 42 42 43 43 44 44 44 44 44 45 45 45 46 46 46 46 47 47 47 47 48 48 49 49 49 49 50 50 51 52 52 53 54 55 56 56 56 56 56 56 56 56 56 55 55 55 55 55 55 55 55
30 30 31 31 31 32 32 32 33 33 33 33 33 33 34 35 35 35 36 36 36 36 37 37 37 38 38 39 39 39 40 40 41 41 41 41 41 42 43 43 43 43 43 44 44 44 44 45 45 45 45 45 45 46 46 47 47 48 48 48 49 49 50 51 51 52 53 54 54 54 54 54 55 55 54 54 54 53 53 53 53 53 53 53 53
31 31 31 31 32 32 32 32 33 33 33 33 33 34 34 35 35 36 36 36 36 37 37 37 37 38 39 39 39 39 40 40 40 40 40 40 40 41 42 42 42 42 42 42 43 43 43 43 43 43 43 43 44 44 44 45 46 46 47 47 48 48 49 50 51 51 52 52 52 52 52 53 53 52 52 52 51 51 51 51 51 51 51 51 51
32 32 32 32 32 33 33 33 33 34 34 34 34 34 35 35 35 36 36 36 37 37 37 38 38 38 38 39 39 39 39 39 39 39 39 39 39 40 40 40 40 40 40 41 41 41 41 41 41 41 41 42 42 43 43 44 45 46 46 46 47 47 48 49 50 51 51 51 51 51 51 51 50 50 50 50 50 50 50 49 49 49 49 48 48
32 32 32 32 32 33 33 33 33 33 34 34 34 34 34 35 35 35 36 36 36 37 37 37 37 37 38 38 38 38 38 38 38 38 38 38 38 38 38 38 38 38 38 39 39 39 39 39 39 40 40 40 41 42 43 44 44 44 45 45 46 47 47 48 49 49 50 49 49 49 49 48 48 48 48 48 48 48 48 47 47 47 46 46 46
Wind_Direction
263 263 262 261 260 259 259 258 258 257 257 256 255 254 254 254 253 253 253 254 254 255 255 256 256 256 256 257 257 257 257 257 257 258 258 258 258 258 258 258 259 259 259 260 260 260 261 261 261 261 261 262 262 262 262 262 262 262 263 263 263 263 263 263 263 262 262 262 262 262 263 264 264 264 264 264 264 265 265 265 265 265 265 265 265
263 263 263 262 261 260 259 258 258 258 257 257 256 255 255 254 254 254 253 253 254 254 254 255 255 256 256 256 257 257 258 258 258 258 259 259 259 259 259 259 259 259 259 260 260 260 260 261 261 261 261 261 261 262 262 262 262 262 263 263 263 263 263 263 263 263 263 263 263 262 263 263 264 264 264 264 264 264 265 265 265 265 265 265 265
260 261 262 262 262 261 260 259 258 258 257 257 257 256 256 255 255 254 254 254 254 254 254 254 255 255 256 256 256 256 256 257 258 258 259 259 260 260 260 260 260 260 260 260 260 260 260 261 261 261 261 261 261 261 262 262 262 262 262 263 263 263 263 264 264 264 264 264 264 263 263 263 263 264 264 264 264 264 264 265 265 265 265 265 265
259 259 260 260 260 260 260 260 259 258 258 257 257 256 256 256 255 255 255 255 255 254 254 254 254 254 255 255 256 256 256 256 257 257 258 258 259 259 260 261 261 261 261 261 261 261 261 261 261 261 261 262 262 262 262 262 262 262 262 263 263 263 264 264 264 264 265 265 265 264 264 264 264 264 264 264 264 264 264 264 264 265 265 265 265
260 259 259 259 260 260 259 259 259 259 259 259 258 257 256 256 256 255 255 255 255 255 255 255 254 254 254 255 255 256 256 257 257 257 257 257 258 258 259 260 261 261 261 262 262 262 262 262 262 262 262 263 263 263 263 263 263 263 263 264 264 264 265 265 265 265 266 266 265 265 265 264 264 264 264 264 264 264 264 264 264 265 265 265 265
262 261 260 259 259 259 259 259 259 259 259 259 259 259 258 258 257 257 256 256 256 256 256 256 256 255 255 255 255 255 256 256 257 257 258 258 258 258 258 259 259 260 261 261 262 262 263 263 263 264 264 264 264 264 264 264 264 264 265 265 265 265 265 266 266 266 266 266 266 266 265 265 265 264 264 264 264 264 264 264 264 264 264 265 265
265 264 262 261 260 260 259 259 259 258 258 258 258 258 259 259 259 258 258 257 257 257 257 257 256 256 256 256 256 255 255 255 256 256 257 258 258 258 258 258 259 259 260 260 261 262 262 263 263 264 264 264 265 265 265 265 265 265 265 266 266 266 266 266 266 266 266 266 266 266 266 266 265 265 264 264 264 264 264 264 264 264 264 264 265
264 264 264 264 263 262 261 260 259 259 258 258 258 257 258 258 258 258 258 258 258 258 257 257 257 257 257 257 257 257 256 256 256 256 257 257 257 258 258 258 259 259 259 260 260 261 261 262 262 263 263 264 264 265 265 265 266 266 266 266 267 267 267 267 267 267 267 267 267 267 267 266 266 266 265 265 265 264 264 263 264 264 264 264 265
263 263 263 264 264 263 263 262 261 260 259 258 258 258 257 257 257 257 258 258 258 258 258 258 258 258 258 258 258 258 258 257 257 257 257 257 257 258 258 258 259 259 259 260 260 260 261 261 261 262 262 263 263 264 264 265 265 265 266 266 267 267 267 268 268 268 268 268 268 268 268 268 268 268 267 267 267 266 265 265 265 265 265 265 266
262 262 262 262 262 263 263 263 262 262 261 260 259 259 258 258 258 257 257 257 257 258 258 258 258 258 258 258 258 258 258 258 258 258 258 258 258 258 258 259 259 259 259 259 260 260 260 260 260 261 261 262 262 263 263 264 264 265 265 265 266 266 267 267 268 268 269 269 269 269 269 269 269 269 269 269 269 268 268 267 267 267 267 267 267
260 260 260 260 261 261 261 262 262 262 262 262 261 261 260 259 259 258 258 258 258 258 258 258 258 258 259 259 259 259 259 259 259 259 259 259 259 259 259 259 259 259 259 260 260 260 260 260 261 261 261 261 262 262 263 263 264 264 265 265 266 266 267 267 267 268 268 269 269 270 270 270 270 270 270 270 270 270 270 269 269 269 269 269 269
258 258 258 258 259 259 260 260 261 261 261 261 261 261 261 261 260 260 260 259 259 259 259 259 259 259 259 259 260 260 260 260 261 261 261 261 261 261 261 261 260 260 260 260 261 261 261 261 262 262 262 262 262 262 263 263 264 264 265 265 266 266 267 267 268 268 268 269 269 270 270 270 271 271 271 271 271 271 271 271 271 271 271 271 270
259 258 257 257 257 257 258 258 259 259 260 261 261 261 261 261 261 261 260 260 260 260 260 260 260 260 260 260 261 261 261 261 261 261 262 262 262 262 262 262 262 262 262 262 262 262 262 262 262 262 262 263 263 263 263 263 264 264 264 265 265 266 266 267 267 267 268 268 269 269 270 270 270 271 271 271 271 271 272 272 272 272 272 272 272
260 260 259 257 257 256 257 257 258 258 259 259 260 260 261 261 260 260 260 260 260 260 260 260 260 260 260 261 261 261 262 262 262 262 262 263 263 263 263 263 263 263 263 263 263 263 263 263 263 263 263 263 263 263 263 263 264 264 264 265 265 265 266 266 267 267 268 268 268 269 269 270 270 270 271 271 271 272 272 273 273 273 273 273 273
262 261 260 259 258 257 257 257 257 258 258 258 259 259 260 260 261 261 260 260 260 260 260 260 260 260 260 260 261 261 262 262 262 263 263 263 263 263 263 263 263 263 263 263 263 263 263 263 263 263 263 263 263 263 263 263 264 264 265 265 265 266 266 267 267 267 268 268 269 269 269 270 270 271 271 272 272 273 273 273 274 274 274 274 274
262 261 261 260 259 258 257 257 257 257 257 258 258 259 259 259 260 261 261 261 261 261 261 260 260 260 261 261 261 261 261 261 262 262 262 263 263 263 263 263 263 263 263 262 262 263 263 263 263 263 263 263 263 264 264 264 264 265 265 266 266 266 267 267 268 268 269 269 270 270 270 271 271 272 273 273 273 274 274 274 274 274 274 274 273
263 262 261 261 260 259 258 258 257 257 257 257 258 258 259 259 259 260 260 261 261 262 262 262 262 262 261 261 261 261 261 261 261 261 261 262 262 262 262 262 262 263 263 263 263 263 263 263 263 263 263 263 264 264 264 264 265 265 266 266 267 267 268 268 269 269 270 270 271 271 272 272 273 273 273 274 274 274 274 274 274 274 274 273 273
265 264 263 262 261 260 259 259 258 258 258 258 258 258 258 258 258 259 259 259 260 261 262 262 263 263 263 263 263 263 262 262 262 262 261 261 262 262 262 262 262 263 263 263 263 263 263 263 263 263 263 264 264 264 264 265 265 266 266 266 267 267 268 268 269 269 270 270 271 271 272 272 272 273 273 273 273 274 274 273 273 273 273 272 272
267 265 265 264 263 262 261 260 259 258 258 258 258 258 258 258 258 258 259 259 259 259 260 260 261 262 263 263 263 264 263 263 263 263 262 261 261 262 262 262 262 262 263 263 263 263 264 264 264 264 264 265 265 265 265 265 265 266 266 266 267 267 268 268 269 269 270 270 270 271 271 271 272 272 272 272 272 272 272 272 272 271 271 271 271
267 266 265 264 264 263 262 261 260 259 259 258 258 258 259 259 259 259 259 260 260 260 260 260 260 261 261 262 263 263 263 263 263 263 263 263 262 263 263 263 262 263 263 263 263 263 263 264 264 264 264 265 265 265 265 265 266 266 266 267 267 267 268 268 269 269 270 270 270 270 271 271 271 271 271 271 271 271 271 271 271 271 271 271 271
268 267 266 264 264 263 262 262 261 260 259 259 259 259 259 259 259 260 260 261 261 262 262 262 262 262 262 262 262 263 263 263 263 263 264 264 264 264 264 264 264 264 264 264 264 264 264 264 264 264 264 265 265 266 266 266 267 267 267 267 267 267 268 268 268 269 269 270 270 270 270 270 270 270 270 270 270 270 270 270 270 270 270 271 270
268 267 266 265 264 263 262 262 261 261 260 260 259 259 259 259 259 260 260 261 261 262 262 263 263 263 263 263 262 262 262 262 262 262 263 263 263 263 264 264 264 264 264 265 265 265 265 265 265 265 265 266 266 266 267 267 267 267 267 267 267 267 268 268 268 268 268 269 269 269 269 269 269 269 269 269 269 269 270 270 270 270 270 271 271
268 268 267 265 264 262 262 261 261 260 260 260 260 259 259 259 259 259 259 260 260 261 261 262 262 262 262 262 262 262 262 262 262 261 261 261 262 262 262 263 263 263 263 264 264 265 265 266 266 266 266 266 266 266 266 266 267 267 267 267 267 267 267 267 267 267 267 267 267 267 267 268 268 268 269 269 269 269 270 270 270 270 270 270 271
270 269 268 267 265 263 262 261 260 259 259 259 259 259 259 259 259 259 259 260 260 260 261 261 261 261 262 262 262 262 262 262 262 262 262 262 262 262 262 262 262 262 263 263 263 264 264 264 265 265 265 266 266 266 267 267 267 267 267 267 267 267 267 267 267 267 267 267 267 267 268 268 268 269 269 269 270 270 270 270 270 270 270 270 271
271 270 269 268 266 265 263 262 261 260 259 259 259 259 259 259 259 259 259 259 260 260 260 260 261 261 261 261 261 262 262 262 262 263 263 263 263 263 263 263 263 263 263 263 263 263 263 264 264 264 265 265 266 266 266 266 266 266 266 266 266 267 267 267 267 267 268 268 268 269 269 269 269 270 270 270 270 270 271 271 271 271 271 271 271
272 271 269 268 267 266 264 263 262 261 261 260 260 259 260 260 260 260 260 260 260 260 260 260 260 261 261 261 262 262 263 263 263 263 263 263 263 263 263 263 264 264 264 265 265 265 265 265 265 265 265 265 265 264 264 264 265 265 265 266 266 266 267 267 267 268 268 268 269 269 269 270 270 270 270 271 271 271 271 271 271 271 271 271 271
272 270 269 268 267 266 264 263 262 262 261 261 260 260 260 260 260 261 261 261 261 260 260 260 260 261 261 261 262 262 263 263 263 263 263 263 263 263 264 264 264 265 265 266 266 266 267 266 266 266 265 264 264 264 264 264 265 265 266 266 266 267 267 267 267 268 268 268 268 269 269 269 270 270 270 271 271 271 271 271 271 271 271 271 270
271 270 269 268 267 265 264 263 262 262 261 261 260 260 260 260 260 260 261 261 261 261 260 261 261 261 261 261 262 262 262 262 263 263 263 263 264 264 264 264 265 265 265 266 267 267 267 266 266 266 265 265 265 265 265 265 265 266 266 266 267 267 267 267 267 267 268 268 268 269 269 269 269 270 270 270 271 271 271 272 272 272 272 272 271
272 271 270 268 267 266 265 263 262 262 261 261 261 260 260 260 260 260 260 260 261 261 261 261 261 261 261 261 261 261 261 262 262 263 263 264 264 265 265 265 265 265 265 266 266 266 266 265 266 266 266 266 266 266 266 266 266 266 266 266 266 266 266 267 267 267 268 268 269 269 269 269 269 269 269 270 270 270 270 271 271 272 272 272 272
274 273 271 270 269 268 266 265 264 263 262 262 262 261 261 261 260 260 261 261 261 261 261 261 261 261 261 261 261 261 261 262 263 263 264 265 265 265 265 266 266 266 266 266 265 265 265 265 266 266 266 266 266 266 266 266 266 266 266 266 266 266 266 267 267 267 268 268 268 268 268 269 269 269 270 270 270 270 270 271 271 272 272 272 273
275 273 272 271 270 269 268 267 266 265 264 263 263 263 262 262 262 262 262 262 262 263 263 263 263 263 263 262 262 263 263 263 264 265 265 266 266 266 266 266 266 266 266 266 266 266 266 266 266 266 266 266 267 267 267 267 267 267 267 267 267 267 268 268 268 268 269 269 269 270 270 271 271 271 272 272 272 272 273 273 273 273 273 273 273
274 273 271 271 270 269 268 268 267 266 266 265 264 264 264 264 264 264 264 264 264 264 264 264 265 265 265 265 266 266 266 266 266 266 266 267 267 267 268 268 268 268 267 267 266 266 265 266 266 266 267 267 267 268 268 268 268 269 269 269 270 270 270 271 271 271 271 272 272 272 273 273 273 273 274 274 274 274 274 274 274 274 274 274 274
274 272 271 270 269 268 267 267 267 266 266 265 265 265 265 265 265 265 265 266 265 265 265 265 266 266 267 268 268 268 268 268 268 268 268 268 269 269 270 270 269 269 268 267 266 266 266 266 267 268 268 269 269 269 269 270 270 270 271 271 272 272 272 273 273 273 273 273 273 274 274 274 274 274 274 274 274 274 274 274 273 273 273 273 272
276 275 273 271 270 269 268 267 267 266 266 265 265 265 265 266 266 265 265 265 266 266 266 267 267 268 268 269 269 269 270 270 270 270 270 270 270 270 270 270 270 270 269 269 269 269 269 269 269 269 270 270 270 270 271 271 271 271 271 271 271 272 272 272 273 273 273 274 274 274 274 274 275 275 274 274 274 274 274 274 274 273 273 273 272
279 277 275 274 272 271 270 269 268 267 267 267 266 266 265 265 266 266 266 266 266 267 267 268 268 269 270 271 271 272 272 272 272 272 272 271 271 271 270 270 270 270 270 270 270 271 271 271 271 271 271 271 272 272 272 272 272 272 272 272 272 272 272 273 273 273 274 274 274 274 275 275 275 275 276 276 276 276 275 275 275 275 275 274 274
281 279 278 276 274 273 272 271 270 270 269 268 268 267 267 266 266 266 267 267 268 268 268 269 269 270 270 272 273 274 274 274 274 274 273 273 272 271 270 270 270 270 270 271 271 271 271 272 272 272 272 272 273 273 273 273 273 273 273 273 273 273 273 274 274 274 274 274 275 275 275 276 276 276 277 277 277 277 277 277 277 277 277 277 276
283 282 280 278 277 276 275 274 274 273 272 271 270 270 269 269 268 268 268 269 269 270 271 272 272 272 272 272 272 273 273 274 274 274 273 273 272 272 271 271 270 270 270 271 271 271 271 271 271 271 271 272 272 272 272 273 273 273 273 273 273 274 274 274 274 275 275 276 276 277 277 277 278 278 278 278 278 278 278 278 278 278 278 278 278
286 284 283 281 280 279 278 278 277 276 274 273 272 272 272 271 271 271 271 271 271 271 272 272 273 273 274 274 273 272 272 272 272 272 271 271 271 270 270 270 270 270 270 270 270 270 269 269 269 269 269 269 270 270 271 271 272 272 273 273 274 274 275 276 276 277 277 278 278 279 279 279 279 279 280 280 280 279 279 279 279 279 279 279 278
288 286 285 283 282 281 280 279 278 277 276 275 275 274 274 274 273 273 273 273 273 272 272 272 273 273 273 274 274 273 273 272 271 271 271 271 270 270 270 270 270 270 270 269 270 270 270 270 270 269 269 269 270 270 271 272 273 273 274 275 276 276 277 277 278 279 279 280 280 280 280 280 280 280 280 280 280 280 280 280 280 280 280 279 279
290 288 286 285 283 282 281 280 279 279 278 278 277 277 276 275 275 275 274 274 274 273 273 273 272 272 273 273 272 272 272 272 271 271 270 271 271 271 272 272 272 271 271 271 271 272 272 272 272 272 272 272 272 273 273 274 275 275 276 277 278 278 279 279 279 280 280 281 281 281 281 281 281 281 281 281 281 281 281 281 281 280 280 280 279
292 290 289 287 285 284 283 282 281 280 280 279 278 278 278 277 277 277 277 276 276 275 274 274 274 274 273 273 273 272 272 271 271 271 271 271 271 272 273 273 273 273 273 273 273 273 274 274 274 275 275 275 276 276 276 276 277 277 278 278 279 279 280 280 281 281 281 282 282 282 282 282 282 282 283 283 282 282 282 282 282 282 281 281 280
295 294 292 290 288 287 286 285 284 283 282 282 281 281 280 280 279 279 279 278 278 277 277 276 276 275 275 274 274 273 273 273 272 272 272 273 273 273 274 274 274 275 275 275 276 276 276 276 276 276 277 277 277 278 278 278 278 278 279 279 279 280 280 281 281 282 282 283 283 283 283 284 284 284 284 284 284 284 284 284 284 284 283 283 282
299 297 295 294 292 291 289 288 287 286 285 285 284 284 283 283 282 281 281 280 279 279 278 277 277 276 276 276 276 275 275 275 275 275 275 275 275 275 274 274 275 276 276 277 277 277 278 278 278 278 278 278 278 278 278 279 279 279 279 279 280 280 281 281 282 283 284 284 284 285 285 285 286 286 286 286 286 286 286 286 286 285 285 284 284
301 300 298 297 295 294 293 292 291 289 288 288 287 286 285 285 284 283 283 282 281 280 280 279 278 278 278 277 277 277 277 277 277 277 277 277 277 277 276 276 276 277 277 278 278 278 278 279 279 279 279 279 279 279 279 279 279 279 280 280 281 281 282 283 284 284 285 285 286 286 286 287 287 287 287 287 287 287 287 287 286 286 286 285 285
304 302 300 299 297 296 295 293 292 290 289 288 287 287 286 285 284 284 283 283 283 282 281 280 280 279 279 278 278 278 278 278 278 278 279 279 279 279 279 278 278 278 278 278 279 279 279 279 280 280 280 280 280 280 280 280 280 280 281 282 282 283 284 284 285 285 286 286 287 287 287 288 288 288 288 288 288 288 288 287 287 287 287 286 286
306 304 302 301 299 298 296 295 294 292 291 291 290 289 288 288 287 286 286 285 284 284 283 282 281 281 280 279 279 279 279 279 279 280 280 280 280 280 280 280 279 279 279 279 280 280 280 280 280 280 280 280 280 281 281 281 281 282 282 282 283 284 285 285 286 286 287 287 288 288 288 289 289 289 289 288 288 288 288 288 288 288 288 287 287
308 306 305 303 302 300 299 298 296 295 294 294 293 292 291 290 290 289 288 287 286 285 284 284 283 283 282 281 281 281 281 281 281 281 281 281 281 280 280 280 280 280 280 280 280 280 280 279 279 279 279 280 280 280 281 281 281 282 282 283 284 285 285 286 287 287 288 288 288 289 289 290 290 289 289 289 289 289 289 289 289 289 288 288 288
309 308 306 304 303 301 300 299 298 297 296 295 294 292 291 291 290 289 289 288 288 287 286 286 285 285 284 283 283 282 282 282 282 282 282 282 282 281 281 281 281 281 280 280 280 279 279 279 279 279 279 280 280 280 281 281 282 282 283 284 285 285 286 287 287 288 288 289 289 290 290 291 291 290 290 290 290 290 290 290 290 290 289 289 289
309 308 306 305 303 302 301 300 299 298 297 296 295 294 293 292 292 292 291 291 290 289 288 287 287 286 286 285 285 285 284 284 284 284 283 283 282 281 281 281 281 281 280 280 279 279 279 279 279 279 280 280 280 280 281 281 281 282 283 284 285 286 287 287 288 289 289 290 291 292 292 292 291 291 291 291 291 291 291 291 291 291 290 290 290
309 308 307 305 304 303 302 301 300 299 298 297 297 296 295 295 295 294 293 292 291 290 290 289 288 288 287 287 286 286 286 285 285 284 283 282 281 280 280 280 280 280 280 279 279 279 279 279 279 280 280 280 280 281 281 281 282 283 284 285 286 287 288 289 290 290 291 292 293 293 293 293 293 293 293 293 293 293 293 292 292 292 292 292 291
310 308 307 306 305 304 302 301 300 299 299 298 297 297 296 296 295 294 293 292 292 291 291 290 289 289 288 287 287 286 286 286 285 284 283 283 282 281 281 281 280 280 279 279 279 279 279 280 280 280 280 280 280 281 281 282 283 284 285 286 287 289 290 291 291 292 293 294 295 295 294 295 295 294 294 294 294 294 294 294 294 294 294 293 293